OpenBCM V1.13 (Linux)

Packet Radio Mailbox

DB0FHN

[JN59NK Nuernberg]

 Login: GUEST





  
I6KZR  > KEPLER   09.03.03 08:31l 317 Lines 15752 Bytes #999 (0) @ WW
BID : 27774_IK6WID
Read: DB0FHN GUEST
Subj: 2L Keplerian Elements #066
Path: DB0FHN<DB0RGB<DB0FSG<I4UKI<I6ZLO<IK6WID
Sent: 030307/2238Z @:IK6WID.#AP.IMAR.ITA.EU #:27774 [MONTE URANO]  FBB7.00i
From: I6KZR@IK6WID.#AP.IMAR.ITA.EU
To  : KEPLER@WW


OSCAR 7
1 07530U 74089B   03066.53088062 -.00000029  00000-0  10000-3 0  1549
2 07530 101.7572 114.1573 0012271  45.3793 314.8280 12.53564669295319
GOES 2
1 10061U 77048A   03062.76944659 -.00000220  00000-0  00000+0 0  1069
2 10061  14.1377  13.3235 0012624 200.8418 159.1157  0.99396945 38967
GOES 3
1 10953U 78062A   03065.88853155 -.00000099  00000-0  00000+0 0  9446
2 10953  13.4178  17.1087 0005985 344.3009  15.6891  1.00279620 43664
GOES 6
1 14050U 83041A   03063.00530959 +.00000023 +00000-0 +10000-3 0 04285
2 14050 010.4192 035.4742 0004593 345.1505 014.8975 01.00306906130775
OSCAR 10
1 14129U 83058B   03053.29347507 -.00000135 +00000-0 +10000-3 0 09207
2 14129 025.9661 163.6642 6025305 329.8586 006.1874 02.05867335120141
OSCAR 11 (UoSAT 2)
1 14781U 84021B   03066.53604112  .00001743  00000-0  24859-3 0   899
2 14781  98.1190  40.5924 0009662 148.9417 211.2366 14.78043941 18744
NOAA 10
1 16969U 86073A   03066.58593975  .00000185  00000-0  93984-4 0  6887
2 16969  98.7317  60.6632 0013378  40.2200 319.9967 14.27070682856337
GOES 7
1 17561U 87022A   03065.34493427  .00000041  00000-0  10000-3 0  8784
2 17561   7.6311  55.4507 0005432 264.8245 147.8010  1.00257206 41909
COSMOS 1861
1 18129U 87054A   03066.27544030  .00000067  00000-0  56172-4 0  2121
2 18129  82.9265 134.2096 0011169 172.8774 187.2541 13.72702546786808
EUTELSAT 1-F4 (ECS 4)
1 18351U 87078B   03059.07635020  .00000013  00000-0  00000+0 0   442
2 18351   7.2160  58.6101 0006917 200.9393 159.1775  0.98687115 42776
NOAA 11
1 19531U 88089A   03066.55857867  .00000203  00000-0  12886-3 0  5256
2 19531  98.8993 147.8821 0011877 150.9144 209.2694 14.14545356745204
ASTRA 1A
1 19688U 88109B   03062.90298781  .00000023  00000-0  10000-3 0  5842
2 19688   1.4267  94.6968 0004002 238.8547 157.9372  1.00271478 32334
OSCAR 14 (UOSAT 3)
1 20437U 90005B   03066.55673417  .00000146  00000-0  70766-4 0  1806
2 20437  98.2685 109.3556 0011026 146.5647 213.6252 14.31243244684926
OSCAR 15 (UOSAT 4)
1 20438U 90005C   03064.62977831 +.00000081 +00000-0 +46881-4 0 07883
2 20438 098.2457 096.5767 0009864 163.0425 197.1090 14.30201513684311
OSCAR 16 (PACSAT)
1 20439U 90005D   03064.68159508  .00000154  00000-0  73577-4 0  8607
2 20439  98.3144 119.3435 0011165 159.2957 200.8705 14.31477311684694
OSCAR 17 (DOVE)
1 20440U 90005E   03064.73745692 +.00000130 +00000-0 +64249-4 0 07362
2 20440 098.3358 123.3255 0010856 157.8296 202.3356 14.31755431684774
OSCAR 18 (WEBERSAT)
1 20441U 90005F   03065.84972995  .00000151  00000-0  72490-4 0   277
2 20441  98.3306 123.5928 0011920 155.6562 204.5187 14.31559244684918
OSCAR 19 (LUSAT)
1 20442U 90005G   03065.68652224  .00000153  00000-0  73072-4 0  9784
2 20442  98.3442 126.4894 0011895 155.3055 204.8700 14.31722566684945
JAS 1B (FUJI 2)
1 20480U 90013C   03065.83872885 -.00000001  00000-0  77093-4 0  4672
2 20480  99.0482  25.5232 0540294 327.0591  29.7905 12.83330884612605
HST
1 20580U 90037B   03066.15486111  .00003657  00000-0  28997-3 0  3494
2 20580  28.4674 290.3207 0003958  89.8252  35.8674 14.97895765505127
EUTELSAT 2-F1
1 20777U 90079B   03065.56937573  .00000000  00000-0  10000-3 0   420
2 20777   3.5412  84.3935 0001805 309.2723  51.0970  1.00267422 26264
FENGYUN 1B
1 20788U 90081A   03065.87492224  .00000360  00000-0  26383-3 0  8976
2 20788  99.0280  47.8974 0016143 182.2259 177.8838 14.02144788639827
EUTELSAT 2-F2
1 21056U 91003B   03065.92762154  .00000120  00000-0  10000-3 0  6238
2 21056   2.7710  87.7384 0003948 294.7501 164.1065  1.00274375 32043
INFORMATOR 1
1 21087U 91006A   03064.76802334 +.00000064 +00000-0 +50797-4 0 06067
2 21087 082.9431 306.1529 0033926 206.2802 153.6634 13.74928038606977
COSMOS 2123
1 21089U 91007A   03065.77501658  .00000063  00000-0  51303-4 0  4956
2 21089  82.9247 169.3595 0027599 241.1551 118.6834 13.74405891606019
ASTRA 1B
1 21139U 91015A   03064.00000000  .00000111  00000-0  10000-3 0  1635
2 21139   0.0122 319.8851 0002995  65.1991 156.4174  1.00273184 32339
METEOSAT 5 (MOP 2)
1 21140U 91015B   03060.09077436  .00000002  00000-0  10000-3 0  7410
2 21140   5.6529  69.8729 0000430 309.0749 235.1341  1.00276557 46155
NOAA 12
1 21263U 91032A   03066.54491909  .00000345  00000-0  16543-3 0  9944
2 21263  98.6280  55.8881 0012802 337.0717  22.9889 14.25092286613631
OSCAR 22 (UoSAT 5)
1 21575U 91050B   03066.19393404  .00000311  00000-0  11370-3 0  7429
2 21575  98.1425  57.4789 0008590  82.6830 277.5338 14.39165251610672
METEOR 3-5
1 21655U 91056A   03065.40028186  .00000051  00000-0  10000-3 0  5045
2 21655  82.5548  27.6729 0013417 153.9027 206.2775 13.16980686555562
UARS
1 21701U 91063B   03065.65996109  .00001157  00000-0  10436-3 0  8405
2 21701  56.9829 326.9217 0004017 107.5627 252.5884 15.02893119628135
EUTELSAT 2-F3
1 21803U 91083A   03061.89438075  .00000114  00000-0  10000-3 0  5265
2 21803   2.6299  89.0023 0003956 276.0556 138.8041  1.00272234 37129
INMARSAT 2-F3
1 21814U 91084B   03065.36080883  .00000108  00000-0  10000-3 0  6279
2 21814   1.7763  58.5400 0002618 289.2871 163.7711  1.00276265 41053
INMARSAT 2-F4
1 21940U 92021B   03062.44518345 -.00000365  00000-0  10000-3 0  5765
2 21940   2.3916  20.0078 0002025 329.0460  81.0054  1.00267465 39819
EUTELSAT 2-F4
1 22028U 92041B   03066.20834492 -.00000100  00000-0  10000-3 0  3357
2 22028   1.7575  92.2150 0006263 238.7759 256.2027  1.00271528 31945
OSCAR 23 (KITSAT 1)
1 22077U 92052B   03065.42732833 -.00000037  00000-0  10000-3 0  1595
2 22077  66.0861  92.5178 0015762 270.1881  89.7331 12.86408987496347
ASTRA 1C
1 22653U 93031A   03064.00000000  .00000111  00000-0  10000-3 0  7903
2 22653   0.0122 319.8851 0002995  65.1991 156.4044  1.00273184 31033
METEOR 2-21
1 22782U 93055A   03066.24034561  .00000023  00000-0  78397-5 0  5353
2 22782  82.5501 201.6730 0021087 300.5098  59.3984 13.83532816480398
KITSAT B
1 22825U 93061C   03066.20770285  .00000143  00000-0  72843-4 0  5020
2 22825  98.2725  95.0560 0007977 204.2401 155.8408 14.28948617492255
POSAT 1
1 22826U 93061D   03064.62513204 +.00000144 +00000-0 +72742-4 0 03365
2 22826 098.2710 094.6739 0008061 212.3256 147.7435 14.29171369492079
ITAMSAT
1 22828U 93061F   03065.65178026  .00000118  00000-0  62172-4 0  4414
2 22828  98.2706  95.9156 0009424 185.3560 174.7523 14.29512808460423
EYESAT A
1 22829U 93061G   03066.14790087  .00000216  00000-0  10004-3 0  4670
2 22829  98.2715  97.0003 0009276 184.5265 175.5835 14.29776099492420
METEOSAT 6
1 22912U 93073B   03065.87888311  .00000060  00000-0  00000+0 0  7113
2 22912   2.7181  82.4708 0001214 191.8439 215.5196  1.00270329 32467
GOES 8
1 23051U 94022A   03065.39439721 -.00000254  00000-0  00000+0 0  6358
2 23051   0.3360 102.2864 0001413 300.0690 188.7256  1.00272205 39968
ASTRA 1D
1 23331U 94070A   03061.83053825  .00000123  00000-0  10000-3 0  8221
2 23331   0.0965 256.2527 0003630  97.0702 129.9835  1.00273165 30993
RADIO ROSTO
1 23439U 94085A   03064.90340278 -.00000038 +00000-0 +13381-3 0 06946
2 23439 064.8179 016.6824 0146589 112.1421 249.5130 11.27547766337328
NOAA 14
1 23455U 94089A   03066.60667076  .00000135  00000-0  97052-4 0  5477
2 23455  99.1865  85.6223 0009321 177.2927 182.8297 14.13302970421885
HIMAWARI 5 (GMS 5)
1 23522U 95011B   03064.59071799 -.00000285  00000-0  00000+0 0  1313
2 23522   1.8050  83.4137 0000325 141.6416 290.7911  1.00272074 29046
HOT BIRD 1
1 23537U 95016B   03055.93642088  .00000074  00000-0  10000-3 0  5388
2 23537   0.0930 158.4148 0007489 128.2319 217.9136  1.00274434 29037
GOES 9
1 23581U 95025A   03064.52737593  .00000083  00000-0  00000+0 0  5451
2 23581   0.2246 276.4940 0012019 247.2507  20.9406  1.00064256 28518
INMARSAT 3-F1
1 23839U 96020A   03064.69458140  .00000011  00000-0  10000-3 0  8818
2 23839   0.0620 330.2476 0002125 288.1404 218.5494  1.00271727 25363
ASTRA 1F
1 23842U 96021A   03064.00000000  .00000111  00000-0  10000-3 0  5623
2 23842   0.0122 319.8851 0002995  65.1991 156.4263  1.00273184 25265
JAS 2
1 24278U 96046B   03064.92497493 +.00000047 +00000-0 +82854-4 0 05794
2 24278 098.5394 214.0618 0350582 176.5620 183.8047 13.52874008323383
UNAMSAT
1 24305U 96052B   03064.93241308 +.00000205 +00000-0 +20364-3 0 06687
2 24305 082.9274 251.4119 0029288 157.3725 202.8709 13.73454245325590
INMARSAT 3-F2
1 24307U 96053A   03064.96224752 -.00000128  00000-0  00000+0 0   913
2 24307   0.0498 345.5747 0004993   9.7076 138.9055  1.00272827 23777
HOT BIRD 2
1 24665U 96067A   03054.87288413  .00000076  00000-0  10000-3 0  3445
2 24665   0.0674 252.7220 0007661  70.4027 157.3662  1.00270188 23318
INMARSAT 3-F3
1 24674U 96070A   03065.60077771  .00000037  00000-0  10000-3 0    34
2 24674   0.0465 312.2906 0003294 356.7126 249.2867  1.00275029 22740
GOES 10
1 24786U 97019A   03065.74861774  .00000088  00000-0  00000+0 0  5767
2 24786   0.1740 103.2309 0002239 282.2354 272.6190  1.00265222 21494
INMARSAT 3-F4
1 24819U 97027A   03064.70598575 -.00000291  00000-0  10000-3 0  8938
2 24819   0.0564 302.6467 0004680  60.0221   0.5213  1.00271137 21161
FENGYUN 2A
1 24834U 97029A   03065.61862190 -.00000199  00000-0  00000+0 0  9747
2 24834   2.6126  88.2837 0001088 246.3441 138.1534  1.00278639 21001
HOT BIRD 3
1 24931U 97049A   03054.87288413  .00000075  00000-0  10000-3 0  4284
2 24931   0.1004 298.5607 0010424  36.2408 145.6862  1.00270404 20133
METEOSAT 7
1 24932U 97049B   03063.87758103 -.00000010  00000-0  00000+0 0  2567
2 24932   0.2424  72.8812 0001213 209.9774 195.7233  1.00265227 20161
ASTRA 1G
1 25071U 97076A   03064.00000000  .00000111  00000-0  10000-3 0  3943
2 25071   0.0122 319.8851 0002995  65.1991 156.4370  1.00273184 19285
